Location: Unspecified
(0.0000°N, 0.0000°E)
Time: 01:50:08
(UTC+00:00)

A-11 Canister half - Visible Passes

Search period start: 23 June 2017 00:00
Search period end: 03 July 2017 00:00
Orbit: 1525 x 1684 km, 47.3° (Epoch: 21 June)

Date Brightness Start Highest point End Pass type
(mag) Time Alt. Az. Time Alt. Az. Time Alt. Az.
23 Jun 10.8 05:19:55 10° S 05:27:22 23° SE 05:34:36 10° E visible
23 Jun 9.4 18:09:31 10° NNW 18:18:31 49° NE 18:27:48 10° ESE visible
23 Jun 10.0 20:14:57 10° WNW 20:23:25 36° SW 20:27:26 26° S visible
24 Jun 10.8 04:58:35 10° S 05:05:42 21° SE 05:12:39 10° E visible
24 Jun 10.0 19:53:11 10° WNW 20:01:47 38° SW 20:07:32 21° S visible
25 Jun 10.9 04:37:16 10° S 04:44:02 20° SE 04:50:39 10° E visible
25 Jun 9.9 19:31:27 10° WNW 19:40:10 41° SW 19:47:37 16° SSE visible
26 Jun 10.9 04:16:00 10° S 04:22:22 18° SE 04:28:36 10° E visible
26 Jun 9.9 19:09:44 10° WNW 19:18:34 44° SW 19:27:42 10° SSE visible
27 Jun 10.9 03:54:45 10° S 04:00:41 17° SE 04:06:30 10° E visible
27 Jun 9.8 18:48:02 10° WNW 18:56:57 47° SW 19:06:14 10° SSE visible
28 Jun 11.0 03:33:35 10° SSE 03:39:00 16° SE 03:44:20 10° ESE visible
28 Jun 9.3 05:34:25 10° SW 05:44:31 80° SE 05:54:15 10° NE visible
28 Jun 9.8 18:26:21 10° WNW 18:35:22 50° SW 18:44:43 10° SSE visible
29 Jun 10.9 03:13:28 11° SSE 03:17:19 14° SE 03:22:04 10° ESE visible
29 Jun 9.3 05:12:49 10° SW 05:22:54 75° SE 05:32:39 10° NE visible
30 Jun 11.0 02:53:33 12° SSE 02:55:37 13° SE 02:59:41 10° ESE visible
30 Jun 9.3 04:51:54 12° SSW 05:01:18 70° SE 05:11:02 10° NE visible
01 Jul 11.0 02:33:39 12° SE 02:33:54 12° SE 02:37:06 10° ESE visible
01 Jul 9.4 04:31:59 19° SSW 04:39:41 66° SE 04:49:23 10° NE visible
01 Jul 11.2 19:35:49 10° SW 19:36:19 10° SW 19:36:51 10° SW visible
02 Jul 11.2 02:13:45 10° SE 02:13:45 10° SE 02:14:02 10° SE visible
02 Jul 9.4 04:12:05 27° SSW 04:18:04 62° SE 04:27:44 10° NE visible
02 Jul 11.1 19:12:05 10° WSW 19:14:38 11° SW 19:17:13 10° SSW visible
